Content
SEND FEEDBACK

Daily
Averages
Monthly
Summary
United States of America

GREENBELT, VIRGINIA


Home > North America > United States > Virginia
Elevation: 120 feet     Latitude: 39 02N     Longitude: 076 53W

WEATHER
 
SELECT A DAY
Number of Records: 184,536;   Date Range: 5/31/06 - 7/7/14
 
SHARE

PRINT THIS DATA

[ ← Previous Day ]
WEATHER ALMANAC - JANUARY 31, 2013
[ Next Day → ]
[ °C ]   °F
Weather ElementAverageHighLow
Temperature45.7 °F66.2 °F (1:10 am)33.1 °F (10:30 pm)
Dewpoint27.3 °F65.5 °F (1:10 am)14.5 °F (7:40 pm)
Humidity50.4 %98 % (12:45 am)33 % (1:40 pm)
Barometer29.63 in29.93 in (11:35 pm)29.16 in (1:10 am)
Wind Speed12.7 mph27.6 mph (4:45 am)
Wind Gust38 mph (4:45 am)
Weather ElementAverage
Visibility9.8 mi
Wind DirectionWSW (253.1 °)

Weather ElementTotal
Precipitation---
Heating Degree Days15.4 (Base 65)
Averaged from 64 records on January 31, 2013
WEATHER CONDITIONS BREAKOUT
WIND DIRECTION BREAKOUT
WEATHER BY HOUR - JANUARY 31, 2013
[ °C ]   °F
Local TimeTemperatureDewpointHumidityBarometerVisibilityWind DirectionWind SpeedGust SpeedPrecipitationEventsConditions
12:45 AM65.5 °F64.8 °F98 %29.20 in1.8 miSouth (180°)15.0 mph24.2 mphOvercast
1:10 AM66.2 °F65.5 °F98 %29.16 in4.0 miSouth (180°)13.8 mph23.0 mphOvercast
1:50 AM64.2 °F62.2 °F93 %29.21 in10.0 miWSW (250°)9.2 mph25.3 mphOvercast
2:10 AM62.6 °F61.2 °F95 %29.22 in10.0 miWest (260°)5.8 mph19.6 mphOvercast
2:35 AM61.7 °F59.5 °F93 %29.22 in10.0 miSW (220°)8.1 mphOvercast
3:00 AM61.7 °F55.8 °F81 %29.20 in10.0 miSSW (210°)6.9 mph16.1 mphOvercast
3:20 AM61.0 °F52.9 °F75 %29.17 in10.0 miSSW (200°)6.9 mphOvercast
3:45 AM61.2 °F51.3 °F70 %29.20 in10.0 miSW (230°)8.1 mph20.7 mphScattered Clouds
4:05 AM60.8 °F52.0 °F73 %29.21 in10.0 miSW (230°)10.4 mph19.6 mphScattered Clouds
4:25 AM58.1 °F47.3 °F67 %29.26 in10.0 miWest (280°)17.3 mph29.9 mphOvercast
4:45 AM55.4 °F43.7 °F65 %29.28 in10.0 miNW (310°)27.6 mph38.0 mphOvercast
5:10 AM52.3 °F35.8 °F53 %29.32 in10.0 miWNW (300°)19.6 mph31.1 mphOvercast
5:30 AM51.3 °F34.9 °F54 %29.35 in10.0 miWNW (300°)18.4 mph35.7 mphOvercast
5:50 AM50.2 °F34.7 °F55 %29.37 in10.0 miWest (280°)11.5 mph32.2 mphOvercast
6:10 AM49.5 °F34.9 °F57 %29.40 in10.0 miWNW (290°)15.0 mph24.2 mphMostly Cloudy
6:35 AM48.2 °F33.4 °F57 %29.43 in10.0 miWNW (290°)18.4 mph28.8 mphScattered Clouds
6:55 AM47.5 °F32.9 °F57 %29.46 in10.0 miWest (280°)13.8 mph26.5 mphClear
7:35 AM45.5 °F30.2 °F55 %29.51 in10.0 miWest (280°)20.7 mph33.4 mphScattered Clouds
8:00 AM44.8 °F28.4 °F53 %29.54 in10.0 miWNW (290°)15.0 mph33.4 mphScattered Clouds
8:20 AM44.6 °F27.3 °F51 %29.55 in10.0 miWest (280°)18.4 mph28.8 mphClear
8:40 AM44.8 °F27.1 °F50 %29.56 in10.0 miWNW (290°)12.7 mph23.0 mphClear
9:00 AM45.5 °F27.3 °F49 %29.58 in10.0 miWest (270°)16.1 mph21.9 mphClear
9:25 AM46.4 °F25.2 °F43 %29.59 in10.0 miWest (270°)19.6 mph28.8 mphScattered Clouds
9:45 AM45.9 °F24.1 °F42 %29.60 in10.0 miWest (260°)16.1 mph28.8 mphScattered Clouds
10:05 AM45.9 °F25.2 °F44 %29.62 in10.0 miWest (270°)19.6 mph25.3 mphScattered Clouds
10:25 AM46.6 °F24.3 °F42 %29.63 in10.0 miWest (270°)12.7 mph26.5 mphMostly Cloudy
10:50 AM45.3 °F21.9 °F40 %29.65 in10.0 miWest (280°)19.6 mph32.2 mphScattered Clouds
11:10 AM46.8 °F21.9 °F37 %29.65 in10.0 miWest (270°)17.3 mph29.9 mphScattered Clouds
11:30 AM46.9 °F22.1 °F38 %29.65 in10.0 miWSW (250°)20.7 mph28.8 mphScattered Clouds
11:50 AM47.8 °F22.3 °F37 %29.66 in10.0 miWSW (240°)20.7 mph31.1 mphScattered Clouds
12:15 PM48.9 °F22.6 °F36 %29.65 in10.0 miWest (260°)15.0 mph28.8 mphScattered Clouds
12:35 PM49.1 °F23.7 °F37 %29.66 in10.0 miWest (280°)21.9 mph31.1 mphScattered Clouds
12:55 PM47.3 °F22.8 °F38 %29.67 in10.0 miWNW (290°)17.3 mph27.6 mphScattered Clouds
1:15 PM48.2 °F21.4 °F35 %29.68 in10.0 miWest (280°)10.4 mph24.2 mphMostly Cloudy
1:40 PM47.5 °F19.6 °F33 %29.68 in10.0 miWest (280°)16.1 mph28.8 mphScattered Clouds
2:00 PM45.0 °F18.3 °F35 %29.69 in10.0 miWest (280°)17.3 mph31.1 mphScattered Clouds
2:20 PM44.8 °F17.6 °F34 %29.70 in10.0 miWest (280°)16.1 mph28.8 mphMostly Cloudy
2:40 PM46.4 °F19.0 °F34 %29.71 in10.0 miWest (280°)11.5 mph25.3 mphMostly Cloudy
3:05 PM44.8 °F20.7 °F38 %29.73 in10.0 miWNW (300°)17.3 mph27.6 mphClear
3:25 PM43.0 °F20.8 °F41 %29.74 in10.0 miWest (280°)11.5 mph27.6 mphScattered Clouds
3:45 PM42.1 °F18.3 °F39 %29.75 in10.0 miWest (280°)16.1 mph25.3 mphMostly Cloudy
4:05 PM43.5 °F19.2 °F38 %29.77 in10.0 miWest (270°)12.7 mph21.9 mphOvercast
4:30 PM42.1 °F17.2 °F37 %29.79 in10.0 miWest (260°)15.0 mph29.9 mphScattered Clouds
4:50 PM41.0 °F16.5 °F37 %29.80 in10.0 miWest (280°)12.7 mph31.1 mphScattered Clouds
5:10 PM39.9 °F17.6 °F41 %29.81 in10.0 miWest (260°)11.5 mph19.6 mphClear
5:30 PM39.4 °F18.3 °F43 %29.81 in10.0 miWSW (250°)11.5 mphClear
5:55 PM39.2 °F18.5 °F43 %29.83 in10.0 miWSW (250°)5.8 mph16.1 mphScattered Clouds
6:15 PM39.2 °F18.5 °F43 %29.84 in10.0 miWest (270°)12.7 mph19.6 mphScattered Clouds
6:35 PM38.8 °F18.1 °F43 %29.86 in10.0 miWest (270°)11.5 mph20.7 mphScattered Clouds
6:55 PM38.3 °F16.0 °F40 %29.88 in10.0 miWNW (290°)15.0 mph26.5 mphClear
7:20 PM37.0 °F15.3 °F41 %29.89 in10.0 miWNW (290°)11.5 mph26.5 mphClear
7:40 PM36.5 °F14.5 °F41 %29.91 in10.0 miWNW (290°)11.5 mph21.9 mphClear
8:00 PM35.8 °F17.1 °F47 %29.92 in10.0 miWNW (290°)11.5 mph19.6 mphClear
8:20 PM35.2 °F14.7 °F43 %29.91 in10.0 miNW (310°)6.9 mphClear
8:45 PM34.5 °F14.7 °F44 %29.91 in10.0 miWNW (290°)9.2 mphClear
9:00 PM34.0 °F14.5 °F45 %29.91 in10.0 miWNW (290°)6.9 mphClear
9:25 PM33.4 °F14.9 °F47 %29.91 in10.0 miWNW (290°)4.6 mphClear
9:45 PM33.4 °F14.7 °F46 %29.91 in10.0 miWNW (290°)4.6 mphClear
10:05 PM33.3 °F15.1 °F47 %29.91 in10.0 miWest (270°)4.6 mphClear
10:30 PM33.1 °F14.9 °F47 %29.92 in10.0 miWNW (290°)4.6 mphClear
10:50 PM33.3 °F15.4 °F48 %29.92 in10.0 miCalmClear
11:10 PM33.4 °F15.6 °F48 %29.92 in10.0 miCalmScattered Clouds
11:35 PM33.4 °F16.0 °F49 %29.93 in10.0 miCalmScattered Clouds
11:55 PM33.8 °F15.6 °F47 %29.92 in10.0 miCalmScattered Clouds
Hourly data recorded from KCGS, located miles away from Greenbelt, Virginia







STORIES FROM OUR PARTNERS